Kapuskasing, Ontario

10:57 PM EST on February 19, 2017 (GMT -0500)
Kapuskasing

Weather History for CYYU - September, 2013

Change the Weather History Date:

Friday, September 13, 2013

  Actual Average Record
Temperature  
Mean Temperature 43 °F -  
Max Temperature 51 °F 55 °F 80 °F (2005)
Min Temperature 35 °F 36 °F 35 °F (2007)
Degree Days  
Heating Degree Days 22    
Moisture  
Dew Point 37 °F    
Average Humidity 80    
Maximum Humidity 93    
Minimum Humidity 51    
Precipitation  
Precipitation 0.00 in 0.11 in - ()
Sea Level Pressure  
Sea Level Pressure 30.19 in    
Wind  
Wind Speed 5 mph ()    
Max Wind Speed 10 mph    
Max Gust Speed -    
Visibility 15.0 miles    
Events Rain    
Averages and records for this station are not official NWS values.
T = Trace of Precipitation, MM = Missing Value Source: Averaged Metar Reports

Daily Weather History Graph

Daily Weather History Graph

Search for Another Location

Airport or City:

Trip Planner

Search our weather history database for the weather conditions in past years. The results will help you decide how hot, cold, wet, or windy it might be!

Date:

Astronomy

Sep. 13, 2013 Rise Set
Actual Time 7:03 AM EDT 7:46 PM EDT
Civil Twilight 6:31 AM EDT 8:18 PM EDT
Nautical Twilight 5:52 AM EDT 8:57 PM EDT
Astronomical Twilight 5:12 AM EDT 9:37 PM EDT
Moon 3:58 PM EDT (9/13) 12:07 AM EDT (9/13)
Length of Visible Light 13h 47m
Length of Day
12h 43m
First Quarter, 61% of the Moon is Illuminated
Sep 13
First Quarter
Sep 19
Full
Sep 26
Last Quarter
Oct 4
New
Oct 11
First Quarter

Hourly Weather History & Observations

Time (EDT) Temp. Windchill Dew Point Humidity Pressure Visibility Wind Dir Wind Speed Gust Speed Precip Events Conditions
12:00 AM 39.2 °F 33.6 °F 37.4 °F 93% 30.16 in 15.0 mi WNW 8.1 mph - N/A   Mostly Cloudy
1:00 AM 39.2 °F 35.0 °F 37.4 °F 93% 30.16 in 15.0 mi NW 5.8 mph - N/A   Mostly Cloudy
1:51 AM - - - N/A% - 15.0 mi NW 5.8 mph - N/A   Partly Cloudy
2:00 AM 38 °F - 35 °F 87% 30.17 in 15 mi NW 6.9 mph - - Rain Light Rain Showers
2:00 AM 39.2 °F 34.2 °F 35.6 °F 87% 30.17 in 15.0 mi NW 6.9 mph - N/A   Partly Cloudy
3:00 AM 37.4 °F 33.8 °F 35.6 °F 93% 30.18 in 15.0 mi NW 4.6 mph - N/A   Scattered Clouds
4:00 AM 37.4 °F 32.8 °F 35.6 °F 93% 30.18 in 15.0 mi WNW 5.8 mph - N/A   Mostly Cloudy
5:00 AM 37.4 °F 32.8 °F 35.6 °F 93% 30.19 in 15.0 mi NW 5.8 mph - N/A   Overcast
6:00 AM 37.4 °F 32.8 °F 35.6 °F 93% 30.20 in 15.0 mi NNW 5.8 mph - N/A   Scattered Clouds
7:00 AM 37.4 °F 33.8 °F 35.6 °F 93% 30.22 in 15.0 mi NW 4.6 mph - N/A   Mostly Cloudy
8:00 AM 37 °F - 35 °F 92% 30.24 in 15 mi NNW 4.6 mph - -   Mostly Cloudy
8:00 AM 37.4 °F 33.8 °F 35.6 °F 93% 30.24 in 15.0 mi NNW 4.6 mph - N/A   Mostly Cloudy
9:00 AM 39.2 °F 33.6 °F 35.6 °F 87% 30.25 in 15.0 mi NW 8.1 mph - N/A   Mostly Cloudy
10:00 AM 39.2 °F 32.5 °F 33.8 °F 81% 30.25 in 15.0 mi NNW 10.4 mph - N/A   Mostly Cloudy
11:00 AM 41.0 °F 35.2 °F 33.8 °F 76% 30.26 in 15.0 mi NNW 9.2 mph - N/A   Mostly Cloudy
12:00 PM 44.6 °F 42.2 °F 33.8 °F 66% 30.24 in 15.0 mi North 4.6 mph - N/A   Mostly Cloudy
1:00 PM 46.4 °F 43.5 °F 35.6 °F 66% 30.22 in 15.0 mi West 5.8 mph - N/A   Scattered Clouds
2:00 PM 48 °F - 35 °F 51% 30.20 in 15 mi West 5.8 mph - -   Mostly Cloudy
2:00 PM 48.2 °F - 35.6 °F 62% 30.20 in 15.0 mi NW 6.9 mph - N/A   Mostly Cloudy
3:00 PM 51.8 °F - 37.4 °F 58% 30.18 in 15.0 mi NNW 8.1 mph - N/A   Mostly Cloudy
4:00 PM 51.8 °F - 37.4 °F 58% 30.17 in 15.0 mi West 5.8 mph - N/A   Mostly Cloudy
5:00 PM 51.8 °F - 37.4 °F 58% 30.16 in 15.0 mi West 4.6 mph - N/A   Mostly Cloudy
6:00 PM 51.8 °F - 39.2 °F 62% 30.15 in 15.0 mi West 4.6 mph - N/A   Scattered Clouds
7:00 PM 51.8 °F - 37.4 °F 58% 30.14 in 15.0 mi Calm Calm - N/A   Partly Cloudy
8:00 PM 46.4 °F - 41.0 °F 81% 30.13 in 15.0 mi Calm Calm - N/A   Scattered Clouds
9:00 PM 42.8 °F - 41.0 °F 93% 30.13 in 15.0 mi Calm Calm - N/A   Partly Cloudy
10:00 PM 41.0 °F - 39.2 °F 93% 30.11 in 15.0 mi Calm Calm - N/A   Clear
11:00 PM 41.0 °F - 39.2 °F 93% 30.10 in 15.0 mi Calm Calm - N/A   Clear